2015-04-05 00:03:40 r, 17.64m,0000000008Hz,0000058649c,0000000.127s, 009.6C,00002195
2015-04-05 00:13:40 r, 17.63m,0000000008Hz,0000058462c,0000000.127s, 009.6C,00002195
2015-04-05 00:23:40 r, 17.60m,0000000008Hz,0000056892c,0000000.123s, 009.6C,00002195
2015-04-05 00:33:40 r, 17.58m,0000000008Hz,0000056032c,0000000.122s, 009.3C,00002195
2015-04-05 00:43:40 r, 17.58m,0000000008Hz,0000055586c,0000000.121s, 009.3C,00002195
2015-04-05 00:53:40 r, 17.57m,0000000009Hz,0000055385c,0000000.120s, 009.3C,00002195
2015-04-05 01:03:40 r, 17.56m,0000000008Hz,0000054783c,0000000.119s, 009.0C,00002195
2015-04-05 01:13:40 r, 17.56m,0000000009Hz,0000054678c,0000000.119s, 009.0C,00002195
2015-04-05 01:23:40 r, 17.56m,0000000009Hz,0000054547c,0000000.118s, 009.0C,00002195
2015-04-05 01:33:40 r, 17.56m,0000000009Hz,0000054654c,0000000.119s, 008.7C,00002195
2015-04-05 01:43:40 r, 17.56m,0000000008Hz,0000054747c,0000000.119s, 008.7C,00002195
2015-04-05 01:53:40 r, 17.58m,0000000008Hz,0000055563c,0000000.121s, 008.7C,00002195
2015-04-05 02:03:40 r, 17.58m,0000000008Hz,0000055697c,0000000.121s, 008.7C,00002195
2015-04-05 02:13:40 r, 17.58m,0000000009Hz,0000055776c,0000000.121s, 008.7C,00002195
2015-04-05 02:23:40 r, 17.60m,0000000009Hz,0000056649c,0000000.123s, 008.7C,00002195
2015-04-05 02:33:40 r, 17.61m,0000000008Hz,0000057357c,0000000.124s, 008.7C,00002195
2015-04-05 02:43:40 r, 17.63m,0000000008Hz,0000058156c,0000000.126s, 008.3C,00002195
2015-04-05 02:53:40 r, 17.64m,0000000007Hz,0000058658c,0000000.127s, 008.3C,00002195
2015-04-05 03:03:40 r, 17.65m,0000000008Hz,0000059355c,0000000.129s, 008.3C,00002195
2015-04-05 03:13:40 r, 17.66m,0000000007Hz,0000060414c,0000000.131s, 008.0C,00002195
2015-04-05 03:23:40 r, 17.68m,0000000007Hz,0000061430c,0000000.133s, 008.0C,00002195
2015-04-05 03:33:40 r, 17.69m,0000000007Hz,0000061757c,0000000.134s, 008.0C,00002195
2015-04-05 03:43:40 r, 17.70m,0000000007Hz,0000062711c,0000000.136s, 007.7C,00002195
2015-04-05 03:53:40 r, 17.73m,0000000007Hz,0000064339c,0000000.140s, 007.7C,00002195
2015-04-05 04:03:40 r, 17.75m,0000000007Hz,0000065887c,0000000.143s, 007.7C,00002195
2015-04-05 04:13:40 r, 17.78m,0000000007Hz,0000067088c,0000000.146s, 007.4C,00002195
2015-04-05 04:23:40 r, 17.78m,0000000007Hz,0000067570c,0000000.147s, 007.4C,00002195
2015-04-05 04:33:40 r, 17.81m,0000000007Hz,0000069184c,0000000.150s, 007.4C,00002195
2015-04-05 04:43:40 r, 17.83m,0000000006Hz,0000071099c,0000000.154s, 007.4C,00002195
2015-04-05 04:53:40 r, 17.86m,0000000007Hz,0000073049c,0000000.159s, 007.4C,00002195
2015-04-05 05:03:40 r, 17.88m,0000000007Hz,0000074013c,0000000.161s, 007.0C,00002195
2015-04-05 05:13:40 r, 17.90m,0000000006Hz,0000075529c,0000000.164s, 007.0C,00002195
2015-04-05 05:23:40 r, 17.94m,0000000006Hz,0000077927c,0000000.169s, 007.0C,00002195
2015-04-05 05:33:40 r, 17.91m,0000000006Hz,0000076672c,0000000.166s, 007.0C,00002195
2015-04-05 05:43:40 r, 17.83m,0000000006Hz,0000070930c,0000000.154s, 007.0C,00002195
2015-04-05 05:53:40 r, 17.51m,0000000008Hz,0000052830c,0000000.115s, 007.0C,00002195
2015-04-05 06:03:40 r, 16.76m,0000000017Hz,0000026299c,0000000.057s, 006.7C,00002195
2015-04-05 06:13:40 r, 15.32m,0000000066Hz,0000006988c,0000000.015s, 006.7C,00002195
2015-04-05 06:23:40 r, 13.34m,0000000409Hz,0000000000c,0000000.000s, 006.7C,00002195
2015-04-05 06:33:40 r, 11.31m,0000002675Hz,0000000000c,0000000.000s, 006.7C,00002195
2015-04-05 06:43:40 r, 09.48m,0000014363Hz,0000000000c,0000000.000s, 006.7C,00002195
2015-04-05 06:53:40 r, 08.09m,0000051572Hz,0000000000c,0000000.000s, 006.7C,00002195
2015-04-05 07:03:40 r, 07.11m,0000127650Hz,0000000000c,0000000.000s, 006.7C,00002195
2015-04-05 07:13:40 r, 06.44m,0000236640Hz,0000000000c,0000000.000s, 006.7C,00002195
2015-04-05 07:23:40 r, 05.96m,0000366798Hz,0000000000c,0000000.000s, 006.7C,00002195
2015-04-05 07:33:40 r, 00.00m,0000497227Hz,0000000000c,0000000.000s, 007.0C,00002195
2015-04-05 07:43:40 r, 00.00m,0000561326Hz,0000000000c,0000000.000s, 007.0C,00002195
2015-04-05 07:53:40 r, 00.00m,0000561522Hz,0000000000c,0000000.000s, 007.0C,00002195
2015-04-05 08:03:40 r, 00.00m,0000561577Hz,0000000000c,0000000.000s, 007.4C,00002195
2015-04-05 08:13:40 r, 00.00m,0000561564Hz,0000000000c,0000000.000s, 008.0C,00002195
2015-04-05 08:23:40 r, 00.00m,0000561630Hz,0000000000c,0000000.000s, 008.0C,00002195
2015-04-05 08:33:40 r, 00.00m,0000561736Hz,0000000000c,0000000.000s, 008.3C,00002195
2015-04-05 08:43:40 r, 00.00m,0000561655Hz,0000000000c,0000000.000s, 008.7C,00002195
2015-04-05 08:53:40 r, 00.00m,0000561678Hz,0000000000c,0000000.000s, 009.0C,00002195
2015-04-05 09:03:40 r, 00.00m,0000561777Hz,0000000000c,0000000.000s, 009.6C,00002195
2015-04-05 09:13:40 r, 00.00m,0000562293Hz,0000000000c,0000000.000s, 011.6C,00002195
2015-04-05 09:23:40 r, 00.00m,0000562592Hz,0000000000c,0000000.000s, 014.1C,00002195
2015-04-05 09:33:40 r, 00.00m,0000562893Hz,0000000000c,0000000.000s, 016.4C,00002195
2015-04-05 09:43:40 r, 00.00m,0000563056Hz,0000000000c,0000000.000s, 018.0C,00002195
2015-04-05 09:53:40 r, 00.00m,0000563220Hz,0000000000c,0000000.000s, 019.0C,00002195
2015-04-05 10:03:40 r, 00.00m,0000563375Hz,0000000000c,0000000.000s, 020.3C,00002195
2015-04-05 10:13:40 r, 00.00m,0000563665Hz,0000000000c,0000000.000s, 021.5C,00002195
2015-04-05 10:23:40 r, 00.00m,0000563588Hz,0000000000c,0000000.000s, 022.5C,00002195
2015-04-05 10:33:40 r, 00.00m,0000563864Hz,0000000000c,0000000.000s, 023.8C,00002195
2015-04-05 10:43:40 r, 00.00m,0000563979Hz,0000000000c,0000000.000s, 025.1C,00002195
2015-04-05 10:53:40 r, 00.00m,0000564008Hz,0000000000c,0000000.000s, 025.7C,00002195
2015-04-05 11:03:40 r, 00.00m,0000564121Hz,0000000000c,0000000.000s, 026.7C,00002195
2015-04-05 11:13:40 r, 00.00m,0000564183Hz,0000000000c,0000000.000s, 027.0C,00002195
2015-04-05 11:23:40 r, 00.00m,0000564270Hz,0000000000c,0000000.000s, 028.0C,00002195
2015-04-05 11:33:40 r, 00.00m,0000564404Hz,0000000000c,0000000.000s, 029.0C,00002195
2015-04-05 11:43:40 r, 00.00m,0000564542Hz,0000000000c,0000000.000s, 029.9C,00002195
2015-04-05 11:53:40 r, 00.00m,0000564525Hz,0000000000c,0000000.000s, 030.2C,00002195
2015-04-05 12:03:40 r, 00.00m,0000564432Hz,0000000000c,0000000.000s, 030.6C,00002195
2015-04-05 12:13:40 r, 00.00m,0000564551Hz,0000000000c,0000000.000s, 030.6C,00002195
2015-04-05 12:23:40 r, 00.00m,0000564549Hz,0000000000c,0000000.000s, 030.6C,00002195
2015-04-05 12:33:40 r, 00.00m,0000564742Hz,0000000000c,0000000.000s, 031.5C,00002195
2015-04-05 12:43:40 r, 00.00m,0000564627Hz,0000000000c,0000000.000s, 031.5C,00002195
2015-04-05 12:53:40 r, 00.00m,0000564592Hz,0000000000c,0000000.000s, 031.5C,00002195
2015-04-05 13:03:40 r, 00.00m,0000564760Hz,0000000000c,0000000.000s, 031.9C,00002195
2015-04-05 13:13:40 r, 00.00m,0000564791Hz,0000000000c,0000000.000s, 032.2C,00002195
2015-04-05 13:23:40 r, 00.00m,0000564730Hz,0000000000c,0000000.000s, 032.2C,00002195
2015-04-05 13:33:40 r, 00.00m,0000564807Hz,0000000000c,0000000.000s, 032.8C,00002195
2015-04-05 13:43:40 r, 00.00m,0000564879Hz,0000000000c,0000000.000s, 033.1C,00002195
2015-04-05 13:53:40 r, 00.00m,0000564765Hz,0000000000c,0000000.000s, 033.1C,00002195
2015-04-05 14:03:40 r, 00.00m,0000564845Hz,0000000000c,0000000.000s, 033.5C,00002195
2015-04-05 14:13:40 r, 00.00m,0000564810Hz,0000000000c,0000000.000s, 033.1C,00002195
2015-04-05 14:23:40 r, 00.00m,0000564821Hz,0000000000c,0000000.000s, 032.8C,00002195
2015-04-05 14:33:40 r, 00.00m,0000564907Hz,0000000000c,0000000.000s, 033.8C,00002195
2015-04-05 14:43:40 r, 00.00m,0000564829Hz,0000000000c,0000000.000s, 033.1C,00002195
2015-04-05 14:53:40 r, 00.00m,0000564723Hz,0000000000c,0000000.000s, 032.8C,00002195
2015-04-05 15:03:40 r, 00.00m,0000564710Hz,0000000000c,0000000.000s, 032.2C,00002195
2015-04-05 15:13:40 r, 00.00m,0000564281Hz,0000000000c,0000000.000s, 029.9C,00002195
2015-04-05 15:23:40 r, 00.00m,0000564102Hz,0000000000c,0000000.000s, 028.0C,00002195
2015-04-05 15:33:40 r, 00.00m,0000564103Hz,0000000000c,0000000.000s, 028.0C,00002195
2015-04-05 15:43:40 r, 00.00m,0000564065Hz,0000000000c,0000000.000s, 027.3C,00002195
2015-04-05 15:53:40 r, 00.00m,0000564186Hz,0000000000c,0000000.000s, 028.0C,00002195
2015-04-05 16:03:40 r, 00.00m,0000564187Hz,0000000000c,0000000.000s, 028.6C,00002195
2015-04-05 16:13:40 r, 00.00m,0000564040Hz,0000000000c,0000000.000s, 027.3C,00002195
2015-04-05 16:23:40 r, 00.00m,0000564273Hz,0000000000c,0000000.000s, 028.3C,00002195
2015-04-05 16:33:40 r, 00.00m,0000564364Hz,0000000000c,0000000.000s, 029.6C,00002195
2015-04-05 16:43:40 r, 00.00m,0000564259Hz,0000000000c,0000000.000s, 029.3C,00002195
2015-04-05 16:53:40 r, 00.00m,0000564202Hz,0000000000c,0000000.000s, 029.3C,00002195
2015-04-05 17:03:40 r, 00.00m,0000564036Hz,0000000000c,0000000.000s, 028.3C,00002195
2015-04-05 17:13:40 r, 00.00m,0000563986Hz,0000000000c,0000000.000s, 027.0C,00002195
2015-04-05 17:23:40 r, 00.00m,0000563683Hz,0000000000c,0000000.000s, 025.7C,00002195
2015-04-05 17:33:40 r, 00.00m,0000563577Hz,0000000000c,0000000.000s, 024.4C,00002195
2015-04-05 17:43:40 r, 00.00m,0000563440Hz,0000000000c,0000000.000s, 023.5C,00002195
2015-04-05 17:53:40 r, 00.00m,0000563393Hz,0000000000c,0000000.000s, 022.8C,00002195
2015-04-05 18:03:40 r, 00.00m,0000563271Hz,0000000000c,0000000.000s, 022.2C,00002195
2015-04-05 18:13:40 r, 00.00m,0000563264Hz,0000000000c,0000000.000s, 022.2C,00002195
2015-04-05 18:23:40 r, 00.00m,0000563195Hz,0000000000c,0000000.000s, 021.2C,00002195
2015-04-05 18:33:40 r, 00.00m,0000563161Hz,0000000000c,0000000.000s, 020.6C,00002195
2015-04-05 18:43:40 r, 00.00m,0000563114Hz,0000000000c,0000000.000s, 020.3C,00002195
2015-04-05 18:53:40 r, 00.00m,0000563042Hz,0000000000c,0000000.000s, 019.9C,00002195
2015-04-05 19:03:40 r, 00.00m,0000563012Hz,0000000000c,0000000.000s, 019.6C,00002195
2015-04-05 19:13:40 r, 00.00m,0000562900Hz,0000000000c,0000000.000s, 019.3C,00002195
2015-04-05 19:23:40 r, 00.00m,0000562930Hz,0000000000c,0000000.000s, 019.0C,00002195
2015-04-05 19:33:40 r, 00.00m,0000515704Hz,0000000000c,0000000.000s, 018.6C,00002195
2015-04-05 19:43:40 r, 05.88m,0000396317Hz,0000000000c,0000000.000s, 018.3C,00002195
2015-04-05 19:53:40 r, 06.61m,0000201030Hz,0000000000c,0000000.000s, 017.7C,00002195
2015-04-05 20:03:40 r, 07.44m,0000093760Hz,0000000000c,0000000.000s, 017.4C,00002195
2015-04-05 20:13:40 r, 08.59m,0000032594Hz,0000000000c,0000000.000s, 016.7C,00002195
2015-04-05 20:23:40 r, 10.18m,0000007539Hz,0000000000c,0000000.000s, 016.4C,00002195
2015-04-05 20:33:40 r, 12.10m,0000001280Hz,0000000000c,0000000.000s, 016.1C,00002195
2015-04-05 20:43:40 r, 14.21m,0000000184Hz,0000000000c,0000000.000s, 016.1C,00002195
2015-04-05 20:53:40 r, 15.94m,0000000038Hz,0000012359c,0000000.027s, 015.7C,00002195
2015-04-05 21:03:40 r, 17.15m,0000000012Hz,0000037443c,0000000.081s, 015.4C,00002195
2015-04-05 21:13:40 r, 17.85m,0000000006Hz,0000071954c,0000000.156s, 015.4C,00002195
2015-04-05 21:23:40 r, 18.08m,0000000005Hz,0000088622c,0000000.192s, 015.1C,00002195
2015-04-05 21:33:40 r, 18.17m,0000000005Hz,0000096023c,0000000.208s, 015.1C,00002195
2015-04-05 21:43:40 r, 18.20m,0000000004Hz,0000098825c,0000000.214s, 014.8C,00002195
2015-04-05 21:53:40 r, 18.20m,0000000005Hz,0000098860c,0000000.215s, 014.8C,00002195
2015-04-05 22:03:40 r, 18.13m,0000000005Hz,0000093142c,0000000.202s, 014.5C,00002195
2015-04-05 22:13:40 r, 18.06m,0000000006Hz,0000087780c,0000000.190s, 014.5C,00002195
2015-04-05 22:23:40 r, 17.89m,0000000006Hz,0000074712c,0000000.162s, 014.1C,00002195
2015-04-05 22:33:40 r, 17.88m,0000000006Hz,0000073773c,0000000.160s, 014.1C,00002195
2015-04-05 22:43:40 r, 17.78m,0000000007Hz,0000067222c,0000000.146s, 014.1C,00002195
2015-04-05 22:53:40 r, 17.82m,0000000006Hz,0000070058c,0000000.152s, 013.8C,00002195
2015-04-05 23:03:40 r, 17.89m,0000000007Hz,0000074855c,0000000.162s, 013.8C,00002195
2015-04-05 23:13:40 r, 17.94m,0000000006Hz,0000078722c,0000000.171s, 013.8C,00002195
2015-04-05 23:23:40 r, 17.88m,0000000007Hz,0000073980c,0000000.161s, 013.8C,00002195
2015-04-05 23:33:40 r, 17.86m,0000000007Hz,0000072353c,0000000.157s, 013.8C,00002195
2015-04-05 23:43:40 r, 17.76m,0000000007Hz,0000066299c,0000000.144s, 013.5C,00002195
2015-04-05 23:53:40 r, 17.76m,0000000007Hz,0000066148c,0000000.144s, 013.5C,00002195
